Date,TemperatureHighF,TemperatureAvgF,TemperatureLowF,DewpointHighF,DewpointAvgF,DewpointLowF,HumidityHigh,HumidityAvg,HumidityLow,PressureMaxIn,PressureMinIn,WindSpeedMaxMPH,WindSpeedAvgMPH,GustSpeedMaxMPH,PrecipitationSumIn
2013-1-1,37.2,30.4,17.8,22.8,14.2,1.0,64,51,42,30.00,29.79,11,3,13,0.00
2013-1-2,29.1,19.0,11.1,11.8,3.0,-4.7,58,49,45,30.17,29.97,8,2,10,0.00
2013-1-3,24.4,14.7,5.0,5.7,-2.5,-10.3,53,46,36,30.20,30.03,5,2,6,0.00
2013-1-4,38.7,29.0,20.1,20.3,15.3,6.1,66,56,46,30.06,29.85,9,3,20,0.00
2013-1-5,40.6,32.0,22.5,21.9,16.6,10.9,65,53,41,30.32,29.94,10,2,13,0.04
2013-1-6,41.5,31.4,22.8,25.9,21.6,12.9,81,67,51,30.29,30.00,6,1,11,0.04
2013-1-7,38.8,31.0,20.5,26.8,18.6,10.2,78,61,45,30.44,30.03,7,1,10,0.04
2013-1-8,44.2,33.3,20.7,25.7,21.4,10.8,75,62,46,30.41,30.32,8,2,14,0.08
2013-1-9,42.3,34.4,24.1,32.5,25.4,19.0,83,70,50,30.44,30.06,10,2,16,0.05
2013-1-10,44.2,38.8,30.2,24.6,20.5,17.4,60,48,39,30.62,30.12,10,3,16,0.00
2013-1-11,37.4,32.0,25.3,33.6,23.9,17.1,95,72,58,30.59,30.26,3,0,4,0.04
2013-1-12,39.9,37.1,34.3,39.4,36.5,33.4,98,98,95,30.29,30.20,3,0,4,0.08
2013-1-13,49.3,44.5,39.0,48.4,43.9,38.5,98,98,96,30.23,30.06,8,2,12,0.00
2013-1-14,58.3,48.7,39.0,54.1,40.3,24.4,98,76,38,30.32,29.94,9,2,12,0.00
2013-1-15,40.3,36.3,31.5,24.8,21.7,19.6,71,56,46,30.38,30.26,6,1,6,0.00
2013-1-16,32.9,31.8,29.3,32.4,28.7,21.6,98,89,64,30.32,29.88,3,0,4,0.00
2013-1-17,39.4,34.1,28.4,34.2,25.6,10.2,98,73,46,30.14,29.88,7,2,10,0.17
2013-1-18,28.2,21.6,17.1,10.6,1.8,-1.3,47,42,35,30.47,30.09,9,3,11,0.00
2013-1-19,44.8,34.5,20.7,28.0,17.1,2.7,65,49,40,30.44,29.94,17,4,23,0.08
2013-1-20,52.3,40.0,27.3,28.8,22.6,6.8,67,50,37,30.00,29.61,15,5,27,0.00
2013-1-21,29.1,23.8,19.8,15.3,7.6,0.9,75,51,40,30.17,29.85,8,2,13,0.00
2013-1-22,24.6,18.9,11.5,16.2,5.3,-5.8,80,57,38,30.14,29.79,9,2,11,0.00
2013-1-23,15.3,10.2,5.7,-3.6,-8.7,-14.4,45,41,37,30.20,30.09,9,3,13,0.00
2013-1-24,18.3,9.8,1.0,-4.5,-11.2,-18.6,39,37,34,30.29,30.12,13,3,13,0.00
2013-1-25,23.0,15.3,6.6,3.7,-6.5,-14.1,56,37,33,30.35,30.09,6,2,8,0.00
2013-1-26,24.1,15.6,8.1,5.7,-0.4,-5.8,65,50,36,30.29,30.03,8,2,9,0.00
2013-1-27,28.2,19.4,11.1,4.8,-1.7,-7.4,50,39,33,30.53,30.29,10,2,10,0.00
2013-1-28,30.4,23.8,17.8,22.1,9.9,-2.0,86,57,40,30.50,30.06,6,1,11,0.00
2013-1-29,33.6,29.4,24.4,32.0,26.4,21.7,97,88,81,30.26,30.06,3,1,4,0.04
2013-1-30,57.7,47.6,32.5,56.7,46.8,31.8,98,97,94,30.20,29.52,13,4,22,0.16
2013-1-31,60.1,46.0,29.5,59.2,34.7,11.7,98,67,40,29.64,29.05,28,6,30,0.50
2013-2-1,33.8,27.4,20.8,12.0,6.5,1.2,48,41,34,30.14,29.67,11,4,16,0.00
2013-2-2,31.1,24.0,16.2,9.1,4.2,-1.5,46,42,38,30.32,30.09,10,3,13,0.00
2013-2-3,27.3,24.0,19.2,19.0,14.9,6.1,82,68,44,30.12,29.79,5,1,6,0.00
2013-2-4,30.0,23.1,18.0,18.1,8.3,2.8,82,54,40,30.00,29.79,10,3,15,0.00
2013-2-5,30.2,24.5,18.9,17.6,9.6,4.8,75,53,43,30.06,29.97,6,1,6,0.00
2013-2-6,38.5,28.9,22.5,26.1,16.0,4.1,84,60,42,30.35,29.97,8,2,11,0.00
2013-2-7,30.9,24.2,15.3,5.7,2.9,0.3,54,40,33,30.56,30.35,5,1,8,0.00
2013-2-8,27.0,23.3,17.4,22.6,15.8,4.3,95,75,42,30.53,29.67,13,3,15,0.00
2013-2-9,25.9,19.8,13.5,19.0,10.0,-2.6,95,68,46,30.26,29.64,18,5,19,0.00
2013-2-10,40.5,22.5,8.2,12.2,1.9,-7.8,48,41,30,30.44,30.26,5,1,6,0.00
2013-2-11,38.5,29.4,17.1,37.9,22.6,1.0,98,77,48,30.41,29.67,3,0,5,0.05
2013-2-12,44.1,37.0,32.0,37.9,26.4,20.5,98,67,46,29.94,29.67,10,3,16,0.08
2013-2-13,42.6,33.8,27.9,24.8,19.8,17.1,65,56,46,29.94,29.76,5,1,7,0.00
2013-2-14,45.5,35.0,27.0,22.1,18.0,14.2,63,50,38,30.06,29.76,5,1,6,0.00
2013-2-15,50.2,38.2,28.6,30.9,26.0,17.2,88,63,45,30.06,29.94,12,3,15,0.00
2013-2-16,37.8,34.0,28.6,31.1,24.4,12.2,93,69,45,30.00,29.82,7,2,10,0.00
2013-2-17,28.2,21.5,15.8,15.6,6.3,-2.6,82,53,40,29.79,29.47,13,5,20,0.05
2013-2-18,32.4,21.3,12.4,6.6,-0.2,-4.9,45,39,31,30.20,29.76,12,4,13,0.00
2013-2-19,47.3,34.5,19.8,39.7,20.6,-0.8,97,59,37,30.23,29.64,10,2,13,0.17
2013-2-20,37.9,31.3,25.0,36.9,17.4,6.8,97,58,41,29.85,29.61,12,4,17,0.17
2013-2-21,34.3,27.1,23.0,13.1,9.6,7.2,56,47,40,30.23,29.82,13,4,17,0.00
2013-2-22,41.4,30.8,20.1,19.2,15.3,10.4,69,53,40,30.41,30.26,8,2,10,0.00
2013-2-23,37.4,32.9,28.4,32.0,25.0,17.2,97,73,61,30.38,29.97,6,1,6,0.00
2013-2-24,34.3,33.0,31.3,33.8,32.5,30.7,98,98,97,29.97,29.76,7,2,8,0.08
2013-2-25,38.1,33.2,27.0,35.1,31.1,26.4,98,92,77,30.29,29.94,3,0,5,0.58
2013-2-26,45.5,36.1,32.0,35.6,28.8,23.7,98,77,50,30.41,30.20,6,1,9,0.45
2013-2-27,40.3,36.2,32.9,39.7,34.8,26.8,98,95,77,30.20,29.64,10,3,15,1.45
2013-2-28,44.6,36.8,32.5,41.4,34.7,31.6,98,93,75,29.73,29.58,5,1,61,0.09
2013-3-1,41.5,36.4,30.9,34.3,26.8,21.9,98,70,52,29.79,29.58,6,2,8,0.00
2013-3-2,40.5,35.9,31.5,24.4,23.0,20.7,69,59,50,29.76,29.67,5,1,8,0.00
2013-3-3,41.9,34.4,31.3,28.8,24.3,20.5,86,67,51,29.73,29.61,6,1,6,0.00
2013-3-4,39.7,33.5,27.5,23.5,19.5,15.4,69,57,44,29.82,29.67,15,4,15,0.00
2013-3-5,45.9,35.7,29.5,27.9,21.8,17.6,77,57,43,30.12,29.82,6,2,8,0.00
2013-3-6,39.4,35.4,32.9,36.0,32.3,27.1,98,89,63,30.17,30.09,13,3,17,0.12
2013-3-7,34.5,32.0,30.0,32.2,29.2,25.7,98,89,72,30.14,30.06,12,3,15,0.05
2013-3-8,38.5,32.9,29.5,32.7,27.5,18.9,98,83,50,30.23,30.00,6,1,10,0.00
2013-3-9,51.4,37.7,27.5,24.8,20.0,15.3,79,50,31,30.44,30.20,6,2,9,1.11
2013-3-10,48.7,34.7,22.6,30.0,24.7,18.0,85,68,46,30.50,30.35,6,1,7,0.21
2013-3-11,51.4,41.2,34.3,37.8,31.9,28.0,90,71,46,30.38,30.20,9,3,12,0.00
2013-3-12,54.7,47.9,40.1,52.0,46.4,38.1,98,95,80,30.23,29.79,10,3,17,0.29
2013-3-13,49.8,41.9,34.3,48.0,28.3,15.4,98,62,37,29.88,29.79,9,2,11,0.04
2013-3-14,38.7,31.0,22.1,18.7,12.0,3.2,55,45,38,29.91,29.79,14,3,15,0.00
2013-3-15,41.5,30.5,19.6,22.8,11.5,2.7,66,45,31,29.97,29.67,9,3,14,0.00
2013-3-16,39.7,33.1,27.0,24.6,14.1,10.0,70,46,33,29.94,29.76,9,2,9,0.00
2013-3-17,38.8,30.4,23.4,15.8,8.4,1.9,54,40,30,30.35,29.91,10,2,13,0.00
2013-3-18,40.3,28.7,16.0,20.3,6.0,-2.9,69,39,29,30.53,30.29,6,2,7,0.00
2013-3-19,34.9,31.8,28.4,33.8,29.7,20.1,98,92,69,30.29,29.67,8,2,11,0.00
2013-3-20,41.5,31.1,23.5,26.4,19.1,13.6,93,64,41,29.88,29.76,11,2,13,0.17
2013-3-21,40.5,29.8,20.1,23.7,17.4,12.6,79,61,40,29.88,29.67,5,1,6,0.12
2013-3-22,42.1,32.3,25.9,20.5,15.4,11.5,71,50,39,29.82,29.67,9,2,12,0.09
2013-3-23,42.6,33.9,27.0,20.3,16.5,14.0,64,49,39,29.88,29.73,11,3,15,0.12
2013-3-24,46.8,36.7,29.3,22.5,18.2,13.8,60,47,37,29.88,29.79,7,2,10,0.00
2013-3-25,44.1,35.5,28.4,27.7,24.1,19.6,75,63,51,29.82,29.55,9,2,11,0.00
2013-3-26,47.8,39.2,34.5,26.4,21.7,14.7,65,50,37,29.85,29.61,6,2,8,0.00
2013-3-27,54.5,41.3,31.1,26.8,20.3,14.2,54,43,32,29.97,29.82,9,2,13,0.00
2013-3-28,50.2,42.2,35.8,32.5,28.3,24.6,85,59,39,30.12,29.94,6,2,11,0.00
2013-3-29,58.8,45.4,34.9,32.7,27.3,23.4,71,51,33,30.14,30.06,6,2,10,0.00
2013-3-30,58.1,45.6,35.8,27.1,22.3,15.6,63,42,25,30.20,30.06,10,2,12,0.00
2013-3-31,62.2,44.7,28.2,37.9,24.2,16.3,80,47,25,30.20,29.82,13,2,16,0.04
2013-4-1,63.7,45.9,33.6,43.9,34.1,11.8,98,67,37,29.88,29.55,12,3,25,0.21
2013-4-2,43.2,34.0,27.9,17.2,11.7,8.4,46,39,32,30.03,29.85,11,4,17,0.00
2013-4-3,47.1,36.5,28.8,16.0,12.4,9.0,55,37,28,30.23,29.97,16,4,19,0.00
2013-4-4,57.9,41.8,27.5,22.3,15.8,9.0,49,36,24,30.35,30.09,16,3,16,0.00
2013-4-5,62.2,46.2,36.5,29.5,23.4,18.1,61,42,25,30.14,29.70,11,3,15,0.00
2013-4-6,46.2,37.8,29.5,20.8,11.8,5.9,48,35,22,30.41,29.94,10,3,12,0.00
2013-4-7,57.9,41.8,25.9,36.9,22.1,7.9,72,47,28,30.41,30.06,23,4,23,0.00
2013-4-8,67.3,53.6,42.3,41.5,36.6,30.2,88,57,31,30.14,30.03,6,2,10,0.00
2013-4-9,72.3,57.0,45.9,53.2,40.8,35.2,92,58,34,30.14,29.94,9,2,11,0.04
2013-4-10,67.1,53.8,46.0,48.6,44.1,38.3,93,72,46,30.09,29.91,7,1,8,0.13
2013-4-11,56.7,48.0,39.7,47.3,36.4,21.0,98,68,36,30.20,29.88,6,2,9,0.17
2013-4-12,39.9,37.6,36.1,36.7,34.6,27.7,98,89,61,30.23,29.88,12,2,12,0.50
2013-4-13,53.2,47.2,45.5,36.3,34.2,33.1,70,61,51,30.00,29.97,2,0,2,0.00
2013-4-14,53.6,44.3,36.3,37.6,29.2,20.8,90,58,36,30.32,29.97,8,2,10,0.00
2013-4-15,62.2,46.9,29.5,33.3,28.4,22.3,79,51,32,30.44,30.29,6,2,11,0.00
2013-4-16,68.9,52.5,36.3,49.5,38.7,31.8,88,62,34,30.50,30.14,20,4,21,0.00
2013-4-17,68.2,58.1,46.2,53.1,34.9,22.5,92,46,24,30.41,30.14,10,2,13,0.00
2013-4-18,66.0,51.1,36.3,42.6,29.4,23.2,70,46,27,30.47,30.20,11,2,17,0.00
2013-4-19,75.4,62.9,52.2,62.6,55.9,42.6,98,80,47,30.20,29.70,24,6,26,0.00
2013-4-20,65.7,53.6,41.5,63.0,39.1,18.5,98,63,34,30.29,29.67,10,3,21,0.41
2013-4-21,54.7,43.2,31.8,23.5,18.7,14.0,56,38,26,30.74,30.32,7,2,10,0.00
2013-4-22,56.1,42.7,29.8,29.7,25.6,21.6,84,54,29,30.79,30.62,17,2,17,0.00
2013-4-23,40.8,39.1,36.9,40.3,35.8,26.4,98,89,62,30.65,30.20,6,2,9,0.00
2013-4-24,76.1,56.5,40.1,48.2,41.8,35.6,98,65,24,30.17,29.85,13,4,15,0.00
2013-4-25,65.7,55.3,44.8,51.8,33.6,19.8,94,48,25,30.35,29.91,13,3,15,0.00
2013-4-26,66.2,50.3,34.3,36.3,29.5,21.6,69,46,32,30.50,30.32,10,2,11,0.00
2013-4-27,67.3,52.0,34.9,38.1,32.6,28.6,87,52,27,30.50,30.32,8,1,10,0.00
2013-4-28,73.8,56.0,36.7,40.5,32.4,22.3,84,46,23,30.44,30.26,13,2,13,0.00
2013-4-29,72.3,58.5,46.9,44.2,34.2,23.0,78,43,26,30.35,30.23,11,3,15,0.00
2013-4-30,72.9,59.3,45.1,34.3,27.4,21.9,54,31,19,30.41,30.32,9,1,11,0.00
2013-5-1,73.2,56.3,37.0,35.1,29.6,23.9,71,39,23,30.53,30.41,9,1,11,0.00
2013-5-2,80.6,58.8,42.3,43.2,36.2,31.1,78,47,21,30.56,30.38,10,2,12,0.00
2013-5-3,63.9,52.0,41.7,39.7,36.6,31.5,82,58,37,30.62,30.44,8,2,11,0.00
2013-5-4,66.6,51.5,38.1,43.0,35.2,25.2,89,58,33,30.44,30.32,9,2,11,0.00
2013-5-5,64.6,49.5,33.3,39.2,34.2,29.5,93,59,35,30.41,30.26,10,2,10,0.00
2013-5-6,75.2,56.0,35.1,47.5,39.8,31.6,92,59,28,30.35,30.17,8,1,9,0.00
2013-5-7,78.8,64.6,45.5,53.4,48.0,41.9,91,59,31,30.26,30.14,10,2,11,0.00
2013-5-8,73.6,62.7,52.7,63.5,56.7,49.8,97,82,54,30.26,30.09,11,1,12,0.17
2013-5-9,66.7,60.8,57.2,63.0,58.9,56.3,98,94,70,30.12,29.94,5,0,6,0.33
2013-5-10,78.6,66.0,52.3,62.8,52.6,45.9,98,67,33,30.06,29.91,4,1,7,0.33
2013-5-11,68.7,63.5,58.6,61.9,57.7,51.3,97,82,60,29.97,29.73,15,3,17,0.04
2013-5-12,69.1,60.2,48.7,61.0,49.5,28.0,98,72,37,29.88,29.61,10,1,13,0.17
2013-5-13,57.6,49.6,42.8,30.4,27.3,22.8,52,42,33,30.12,29.88,8,2,13,0.00
2013-5-14,59.4,49.2,39.0,30.7,27.7,25.5,62,44,30,30.14,30.03,7,1,7,0.00
2013-5-15,64.9,51.5,36.1,52.0,38.2,28.6,92,64,32,30.12,29.73,10,2,17,0.04
2013-5-16,79.7,67.2,51.6,52.5,39.5,28.4,96,42,21,29.88,29.70,9,2,13,0.00
2013-5-17,67.6,59.1,49.1,39.7,36.0,28.0,67,43,26,30.29,29.88,8,2,9,0.00
2013-5-18,71.8,59.3,43.0,46.4,39.9,32.7,85,53,27,30.38,30.26,9,1,10,0.00
2013-5-19,71.1,59.4,49.1,55.6,48.2,43.2,98,69,38,30.41,30.26,10,2,13,0.04
2013-5-20,79.7,67.4,55.9,63.3,59.1,55.4,98,77,48,30.29,29.97,6,1,8,0.08
2013-5-21,85.5,65.1,50.7,65.7,58.1,50.2,98,81,41,30.09,29.88,8,1,8,0.46
2013-5-22,72.3,58.8,50.0,63.9,55.2,49.5,98,89,70,30.12,29.91,6,2,11,0.13
2013-5-23,72.1,63.8,55.0,69.1,61.2,53.6,98,92,77,30.00,29.85,11,2,17,0.08
2013-5-24,70.2,62.0,47.7,66.9,59.4,47.1,98,92,71,29.88,29.73,6,2,10,0.45
2013-5-25,49.5,46.0,40.3,48.9,45.4,39.4,98,98,95,29.88,29.79,6,3,8,0.38
2013-5-26,56.1,47.9,38.8,39.4,35.9,32.2,97,66,41,30.17,29.79,8,3,11,0.04
2013-5-27,69.3,56.6,41.7,41.5,37.0,31.5,92,52,26,30.26,30.12,7,2,9,0.00
2013-5-28,73.8,59.9,43.3,51.1,42.1,38.1,86,56,28,30.32,30.20,11,1,11,0.00
2013-5-29,69.6,62.4,57.7,64.9,59.8,50.9,98,91,72,30.26,30.03,5,1,6,0.41
2013-5-30,84.0,73.4,63.0,69.8,64.6,62.4,98,77,50,30.17,30.06,6,1,10,0.41
2013-5-31,89.4,78.5,64.2,71.4,62.6,54.9,95,62,34,30.17,29.97,6,1,12,0.00
2013-6-1,89.2,79.3,68.4,65.8,61.8,55.9,77,57,33,30.06,29.91,11,2,13,0.00
2013-6-2,86.9,76.7,68.5,67.5,63.8,57.9,89,67,38,29.94,29.76,13,3,24,0.00
2013-6-3,74.8,67.9,59.9,67.1,61.5,41.2,98,81,48,29.94,29.79,4,1,8,0.54
2013-6-4,69.6,60.5,51.3,46.2,39.7,36.0,72,47,34,30.17,29.88,6,2,8,0.00
2013-6-5,72.0,61.3,48.7,49.3,44.1,40.1,87,57,33,30.26,30.14,6,1,10,0.00
2013-6-6,72.1,62.9,54.3,51.1,45.7,40.3,78,55,35,30.26,30.14,10,1,11,0.00
2013-6-7,58.1,55.5,52.7,57.6,54.2,51.4,98,95,80,30.17,29.88,6,1,7,1.33
2013-6-8,73.8,61.8,52.2,62.6,56.7,51.6,98,85,65,30.09,29.73,6,2,10,2.00
2013-6-9,76.3,66.5,57.9,56.8,53.5,48.6,92,66,40,30.23,30.09,11,1,11,0.00
2013-6-10,68.5,61.6,55.0,60.8,56.6,52.5,98,85,61,30.26,30.09,5,0,6,0.58
2013-6-11,61.2,57.9,55.9,59.2,57.0,55.4,98,97,90,30.09,29.64,4,0,7,1.66
2013-6-12,67.8,62.2,57.0,57.7,51.5,46.2,98,71,48,29.88,29.61,9,3,10,0.00
2013-6-13,62.2,55.9,50.9,57.7,53.1,48.4,98,91,72,29.88,29.73,6,0,6,0.67
2013-6-14,71.2,59.0,51.1,55.0,51.8,46.9,98,80,42,29.85,29.73,4,1,6,1.24
2013-6-15,75.2,66.0,56.8,52.2,45.3,40.3,72,50,31,30.00,29.85,4,1,9,0.00
2013-6-16,73.0,66.5,56.8,60.3,49.7,40.3,72,55,42,30.00,29.76,9,2,11,0.00
2013-6-17,82.0,68.9,61.0,62.6,58.0,52.0,98,72,36,29.97,29.82,16,2,20,0.25
2013-6-18,71.8,62.4,58.1,63.3,60.5,57.6,98,94,69,30.03,29.94,4,0,7,0.37
2013-6-19,71.6,62.7,55.6,57.4,50.6,43.9,98,69,37,30.20,29.97,4,1,4,0.29
2013-6-20,75.0,64.6,50.0,54.7,49.0,44.4,92,61,34,30.32,30.20,6,1,9,0.00
2013-6-21,80.1,70.0,59.0,61.3,56.1,51.6,82,63,40,30.32,30.20,6,2,9,0.00
2013-6-22,81.5,72.2,63.5,62.2,56.1,52.7,73,58,37,30.32,30.14,10,2,13,0.00
2013-6-23,86.7,75.6,64.9,69.4,62.3,54.5,77,64,49,30.23,30.03,10,2,13,0.00
2013-6-24,87.8,77.8,70.0,71.1,68.0,60.3,96,74,48,30.09,29.91,10,2,10,0.00
2013-6-25,87.3,77.3,68.0,68.5,65.8,61.2,92,70,42,30.03,29.79,18,2,18,0.00
2013-6-26,82.0,75.0,69.1,68.5,67.0,64.8,91,77,57,29.91,29.79,4,1,6,0.00
2013-6-27,72.3,67.6,64.4,68.5,65.6,63.7,98,94,81,29.94,29.82,7,1,7,0.04
2013-6-28,80.2,69.8,60.6,74.5,65.7,60.1,98,88,66,29.82,29.52,9,2,15,0.54
2013-6-29,81.3,74.4,70.3,70.2,66.9,60.8,98,79,51,29.79,29.55,13,3,16,0.00
2013-6-30,83.8,75.5,68.5,69.8,67.7,63.1,97,78,51,30.00,29.76,9,2,13,0.00
2013-7-1,78.8,74.4,71.1,75.2,71.4,69.3,98,91,79,30.12,29.97,8,1,10,0.04
2013-7-2,81.3,75.1,65.7,72.1,69.5,62.2,96,83,66,30.23,30.09,8,2,11,0.00
2013-7-3,85.5,75.1,63.5,72.0,68.1,61.7,98,80,58,30.26,30.17,7,2,15,0.00
2013-7-4,88.2,80.5,72.5,74.3,71.0,68.0,96,75,53,30.29,30.14,7,2,13,0.00
2013-7-5,88.9,82.4,75.0,73.4,70.7,65.7,87,69,48,30.23,30.09,6,2,13,0.00
2013-7-6,87.1,80.6,75.0,73.8,69.7,64.2,88,71,49,30.14,30.03,5,1,9,0.00
2013-7-7,87.8,78.2,71.8,74.1,68.3,63.7,88,72,56,30.09,29.97,4,0,7,0.00
2013-7-8,85.6,77.0,69.6,73.8,69.7,64.9,96,80,52,30.12,29.97,6,1,8,0.00
2013-7-9,73.2,69.2,65.8,68.4,66.2,64.6,98,90,81,30.17,30.09,4,0,6,0.00
2013-7-10,84.4,73.6,67.3,74.8,69.9,64.4,98,89,62,30.12,29.85,7,1,11,0.13
2013-7-11,80.2,74.6,70.2,73.8,71.4,66.0,98,90,73,30.00,29.82,6,0,6,0.08
2013-7-12,74.1,70.0,66.0,65.5,58.7,53.8,84,68,50,30.23,29.97,6,1,10,0.00
2013-7-13,74.5,69.2,64.4,70.5,65.0,56.1,98,87,71,30.38,30.23,3,0,5,0.05
2013-7-14,85.3,77.0,70.2,75.6,70.6,66.9,98,82,57,30.38,30.23,4,0,5,0.05
2013-7-15,89.1,79.5,71.8,73.8,69.8,61.3,96,75,41,30.26,30.14,4,0,4,0.00
2013-7-16,89.4,80.0,71.1,68.5,64.9,59.4,85,63,37,30.23,30.14,4,1,6,0.00
2013-7-17,90.1,80.6,70.3,73.8,68.2,61.9,93,69,42,30.23,30.06,8,1,9,0.00
2013-7-18,91.2,83.0,76.3,73.0,69.7,64.2,80,66,44,30.06,29.97,5,1,9,0.00
2013-7-19,93.2,84.3,74.1,75.7,71.1,65.1,91,67,41,30.00,29.76,10,2,13,0.00
2013-7-20,89.1,82.2,74.3,75.7,71.1,58.1,90,70,48,29.88,29.73,11,2,14,0.00
2013-7-21,82.2,75.2,68.5,64.8,60.9,57.0,82,62,44,30.06,29.85,4,1,9,0.00
2013-7-22,81.9,72.1,65.3,69.3,65.0,62.1,98,80,54,30.09,29.91,6,1,9,0.00
2013-7-23,77.9,71.3,68.7,77.0,70.1,65.8,98,96,87,29.94,29.55,4,0,6,2.32
2013-7-24,79.7,73.8,65.7,72.7,65.5,50.0,98,77,50,30.00,29.61,5,1,9,0.00
2013-7-25,65.3,59.5,58.3,58.6,51.9,42.8,98,77,55,30.17,30.00,5,1,8,0.12
2013-7-26,70.2,63.8,59.0,66.0,61.5,58.5,98,93,79,30.12,30.00,5,1,6,0.30
2013-7-27,79.9,70.1,61.2,65.7,61.0,55.8,98,75,45,30.14,30.03,6,1,9,0.00
2013-7-28,80.8,71.0,63.7,68.4,65.5,60.6,98,84,57,30.09,29.97,6,0,9,0.57
2013-7-29,81.5,72.8,66.4,70.2,66.7,60.3,98,83,57,30.09,30.00,6,1,9,0.00
2013-7-30,77.9,70.1,63.9,61.2,55.2,49.5,82,61,38,30.17,30.09,6,1,6,0.00
2013-7-31,78.4,70.3,61.0,62.4,56.1,51.1,85,63,40,30.20,30.06,4,0,6,0.00
2013-8-1,77.9,69.0,61.9,64.6,61.7,58.8,95,79,55,30.12,29.91,9,1,11,0.05
2013-8-2,77.5,70.0,64.0,68.4,61.9,54.9,98,78,47,29.94,29.85,5,1,8,1.08
2013-8-3,75.4,69.0,64.2,64.9,61.7,58.1,96,79,57,29.94,29.82,8,1,10,0.13
2013-8-4,75.6,67.0,58.8,61.3,54.8,49.3,90,67,41,29.97,29.82,4,1,6,0.00
2013-8-5,72.3,63.6,55.9,52.9,44.8,38.3,84,54,31,30.14,29.97,6,2,8,0.00
2013-8-6,75.7,64.3,51.1,53.1,48.6,45.1,90,60,35,30.20,30.09,4,1,7,0.00
2013-8-7,76.5,67.2,56.1,60.1,52.4,45.7,95,63,34,30.23,30.14,6,1,9,0.00
2013-8-8,78.1,70.8,64.6,70.0,65.4,55.8,98,84,69,30.20,30.06,8,2,10,0.12
2013-8-9,74.7,72.4,70.2,74.1,70.8,68.0,98,95,87,30.09,29.79,6,2,9,1.45
2013-8-10,77.9,71.3,64.4,71.1,59.4,48.4,98,69,41,30.06,29.85,8,1,9,0.00
2013-8-11,74.3,65.9,55.6,56.8,52.1,47.3,88,63,41,30.17,30.03,4,0,6,0.00
2013-8-12,77.9,69.2,60.1,61.3,56.8,51.3,93,67,41,30.09,29.97,6,1,8,0.00
2013-8-13,73.2,68.5,66.2,67.6,63.0,60.1,93,83,65,30.00,29.73,5,0,6,0.00
2013-8-14,71.1,65.2,59.2,64.2,51.3,45.7,94,63,44,30.03,29.73,6,2,9,0.00
2013-8-15,72.1,63.1,53.1,53.4,49.7,46.0,84,64,41,30.17,30.03,5,1,6,0.00
2013-8-16,74.8,65.6,55.9,56.3,52.0,48.7,84,64,41,30.26,30.14,5,1,6,0.00
2013-8-17,77.0,67.5,55.9,59.9,55.0,52.0,91,67,43,30.35,30.26,4,0,5,0.00
2013-8-18,76.6,67.8,59.0,64.4,58.1,52.0,92,72,44,30.35,30.14,3,0,6,0.00
2013-8-19,77.7,69.6,61.3,62.6,58.7,56.1,90,70,48,30.14,30.00,4,1,6,0.00
2013-8-20,81.0,73.0,64.2,61.2,58.3,53.4,83,62,40,30.17,30.03,4,1,6,0.00
2013-8-21,83.7,73.4,62.1,65.1,60.3,57.0,90,66,41,30.20,30.09,6,1,6,0.00
2013-8-22,83.1,74.3,65.8,69.3,65.7,61.5,92,75,53,30.12,29.85,7,2,10,0.00
2013-8-23,76.8,71.4,63.3,69.1,54.6,44.6,92,58,36,30.17,29.85,5,2,6,0.00
2013-8-24,73.8,64.0,52.3,50.4,46.0,41.5,83,55,32,30.41,30.17,5,1,6,0.00
2013-8-25,79.3,67.2,53.1,57.9,49.9,45.1,89,58,31,30.44,30.20,7,1,9,0.00
2013-8-26,78.3,71.0,65.3,64.9,59.1,53.4,81,66,52,30.23,29.94,5,1,13,0.00
2013-8-27,80.2,72.4,67.8,71.8,66.9,63.1,98,84,57,29.94,29.85,4,0,6,0.21
2013-8-28,83.7,72.4,63.5,68.5,63.0,56.8,97,75,45,30.00,29.88,6,1,8,0.00
2013-8-29,66.9,64.7,61.7,64.6,61.7,57.6,96,90,85,30.14,30.00,7,1,7,0.00
2013-8-30,79.9,69.8,60.8,67.6,62.4,58.3,93,79,55,30.12,29.85,6,1,9,0.00
2013-8-31,78.4,73.7,68.9,71.6,69.8,66.7,97,88,78,29.88,29.82,6,2,9,0.00
2013-9-1,75.9,71.9,68.2,74.5,70.8,67.5,98,96,89,29.94,29.85,6,0,7,0.25
2013-9-2,76.1,73.3,71.4,74.7,71.6,70.0,98,95,87,29.94,29.76,7,0,10,0.12
2013-9-3,77.7,71.4,63.9,71.2,66.2,56.1,98,84,63,29.91,29.73,7,1,9,0.00
2013-9-4,76.3,67.5,60.1,59.2,54.2,48.4,89,65,38,30.00,29.85,6,1,8,0.00
2013-9-5,68.4,63.3,50.9,62.1,50.1,38.5,92,65,35,30.20,29.91,6,1,6,0.00
2013-9-6,66.9,56.5,44.6,44.6,40.1,35.2,82,57,34,30.32,30.14,4,1,9,0.00
2013-9-7,76.3,64.1,52.0,54.0,46.3,41.7,74,55,33,30.17,29.94,9,1,11,0.00
2013-9-8,73.6,63.9,50.0,58.8,48.2,34.3,87,59,34,30.17,29.82,6,2,8,0.00
2013-9-9,67.8,56.9,42.8,48.0,41.2,36.7,84,58,35,30.32,30.17,11,1,12,0.00
2013-9-10,74.3,66.3,56.8,69.4,61.9,48.0,98,86,71,30.23,30.09,9,2,17,0.09
2013-9-11,91.6,79.8,69.8,74.5,70.0,62.8,98,75,43,30.14,29.97,10,2,10,0.00
2013-9-12,84.9,76.2,67.1,71.2,67.7,63.3,98,76,53,30.00,29.73,13,2,18,1.37
2013-9-13,75.4,67.7,59.9,70.5,62.8,52.9,98,85,62,29.85,29.61,6,1,6,1.41
2013-9-14,65.1,59.7,54.3,52.9,49.1,45.3,87,69,51,30.12,29.82,5,1,7,0.00
2013-9-15,68.4,58.8,48.7,50.9,47.0,41.5,92,68,39,30.23,30.09,7,1,10,0.00
2013-9-16,66.0,58.1,47.7,54.1,46.7,31.6,86,67,48,30.32,30.09,7,2,8,0.00
2013-9-17,59.7,50.3,41.4,42.6,35.1,31.3,83,57,39,30.47,30.32,6,1,8,0.00
2013-9-18,70.2,55.0,41.2,50.2,42.1,37.8,91,66,33,30.41,30.20,7,1,11,0.00
2013-9-19,76.1,62.2,47.7,53.2,47.4,42.6,88,62,35,30.23,30.09,4,0,6,0.00
2013-9-20,77.4,63.9,49.8,55.9,50.1,45.7,95,65,33,30.17,30.03,4,0,7,0.00
2013-9-21,73.4,64.9,53.2,64.9,57.7,50.7,98,79,52,30.12,29.79,10,2,11,0.00
2013-9-22,69.6,62.8,52.2,66.4,54.5,43.0,98,76,48,29.91,29.64,6,1,10,0.50
2013-9-23,60.6,52.8,46.4,43.0,38.2,34.2,75,59,42,30.09,29.91,4,1,6,0.00
2013-9-24,64.6,53.6,43.0,41.7,38.0,35.8,78,58,35,30.09,29.88,4,1,5,0.00
2013-9-25,66.4,56.5,47.3,48.9,44.1,40.1,81,64,46,30.06,29.91,4,0,4,0.00
2013-9-26,63.5,57.1,52.5,50.4,45.9,41.0,87,68,46,30.20,30.03,3,0,5,0.00
2013-9-27,63.9,57.7,51.1,50.9,49.8,47.7,90,76,58,30.35,30.20,3,0,4,0.00
2013-9-28,72.7,58.5,47.8,54.7,48.2,44.4,94,72,43,30.41,30.32,6,0,6,0.00
2013-9-29,66.4,53.9,44.2,55.0,43.8,38.1,98,72,37,30.35,30.17,4,0,5,0.00
2013-9-30,67.3,54.2,43.7,54.7,45.9,40.1,98,76,44,30.20,30.03,4,0,6,0.00
2013-10-1,74.7,61.3,46.6,55.6,48.5,43.5,94,67,35,30.06,29.94,5,1,6,0.00
2013-10-2,76.3,66.3,55.0,59.0,53.8,50.0,89,66,46,30.03,29.91,6,1,6,0.00
2013-10-3,75.6,63.6,51.4,53.4,47.7,41.9,89,59,32,30.17,30.03,4,0,5,0.00
2013-10-4,61.9,57.7,51.4,57.6,52.8,46.4,97,84,70,30.17,30.09,2,0,4,0.08
2013-10-5,69.4,62.1,57.6,59.7,56.8,54.1,98,84,64,30.20,30.12,3,0,4,0.00
2013-10-6,61.0,56.3,53.6,58.5,55.5,53.1,98,97,85,30.32,30.14,5,0,6,0.33
2013-10-7,75.4,63.7,55.9,71.6,60.1,52.9,98,89,66,30.20,29.85,13,2,21,0.12
2013-10-8,64.2,56.1,44.6,52.7,42.1,35.8,81,62,36,30.44,29.97,4,1,7,0.04
2013-10-9,61.2,49.7,38.8,44.1,39.6,36.3,94,70,45,30.56,30.44,5,1,6,0.00
2013-10-10,70.0,50.7,40.8,50.4,45.3,37.8,96,82,32,30.44,30.23,3,0,4,0.00
2013-10-11,68.4,56.0,46.0,52.2,45.9,37.8,98,72,35,30.26,30.14,4,0,6,0.00
2013-10-12,58.5,52.8,44.4,56.3,49.6,41.2,98,89,77,30.47,30.20,4,0,6,0.00
2013-10-13,57.6,51.6,42.1,50.0,45.5,38.5,98,81,62,30.53,30.44,4,0,6,0.00
2013-10-14,64.4,50.7,37.0,50.5,39.9,35.6,98,71,36,30.47,30.32,4,0,5,0.00
2013-10-15,65.8,56.2,48.2,51.4,47.3,42.8,92,73,51,30.32,30.23,4,0,5,0.00
2013-10-16,59.4,54.3,48.2,55.6,50.0,45.3,98,86,66,30.26,29.97,2,0,4,0.00
2013-10-17,71.8,61.4,50.5,61.2,54.8,49.1,98,81,47,30.00,29.79,6,1,9,0.00
2013-10-18,66.7,60.0,47.8,61.7,47.4,37.2,98,66,40,30.00,29.67,7,2,13,0.05
2013-10-19,68.4,54.8,40.3,43.9,38.6,34.9,87,57,34,30.06,29.79,6,1,10,0.00
2013-10-20,60.6,53.1,42.6,51.1,36.7,27.3,97,57,34,30.09,29.73,9,2,9,0.04
2013-10-21,67.1,52.8,37.6,41.0,35.3,30.2,85,54,33,30.17,30.06,7,2,12,0.00
2013-10-22,67.5,53.1,42.1,51.4,40.2,31.8,97,63,44,30.06,29.79,9,2,13,0.00
2013-10-23,50.4,45.1,37.0,36.7,30.5,27.5,84,58,41,29.88,29.67,4,0,5,0.00
2013-10-24,53.6,45.7,37.6,31.8,26.3,20.5,70,48,34,29.94,29.73,11,2,15,0.00
2013-10-25,49.1,41.4,35.1,34.5,24.5,20.3,80,52,38,30.23,29.94,9,2,9,0.00
2013-10-26,56.1,44.0,30.7,31.3,26.6,22.1,85,53,31,30.23,29.94,17,3,21,0.00
2013-10-27,54.3,47.7,40.6,34.9,29.2,23.7,69,50,37,30.12,29.85,8,2,11,0.00
2013-10-28,60.8,45.6,33.6,33.4,27.2,18.5,79,50,34,30.41,30.12,10,2,13,0.00
2013-10-29,50.2,37.2,27.5,25.0,18.3,13.6,68,48,31,30.53,30.41,5,1,6,0.00
2013-10-30,53.1,41.0,30.2,35.8,30.0,16.3,84,66,50,30.44,30.26,9,1,9,0.00
2013-10-31,61.0,47.5,32.4,59.4,44.4,28.6,98,89,80,30.29,29.88,11,2,15,0.12
2013-11-1,68.4,63.4,56.3,62.6,55.7,49.1,98,77,56,29.88,29.52,20,5,27,0.21
2013-11-2,68.7,55.4,45.0,51.4,42.1,36.1,93,65,34,29.82,29.64,6,1,9,0.00
2013-11-3,50.5,41.6,31.6,43.5,24.3,11.1,79,52,31,30.47,29.82,10,3,11,0.00
2013-11-4,42.1,33.1,26.2,17.1,12.5,9.5,60,43,33,30.77,30.47,8,1,10,0.00
2013-11-5,51.4,38.8,24.8,31.3,23.3,13.6,75,55,37,30.77,30.56,7,1,8,0.00
2013-11-6,62.4,50.7,39.2,47.7,38.1,30.7,83,64,42,30.59,30.12,17,4,17,0.00
2013-11-7,64.0,53.4,40.3,57.0,47.3,27.0,93,80,55,30.12,29.76,17,3,22,0.08
2013-11-8,50.2,39.5,32.0,32.4,21.8,15.8,64,49,40,30.17,29.88,15,3,15,0.00
2013-11-9,46.6,37.8,29.3,23.7,20.3,17.2,62,50,37,30.29,30.09,8,2,9,0.00
2013-11-10,59.0,44.7,38.8,41.9,31.7,23.7,95,61,45,30.09,29.79,11,2,15,0.04
2013-11-11,53.4,45.3,37.2,27.9,23.9,20.8,53,43,36,30.20,29.94,11,3,13,0.00
2013-11-12,49.1,35.2,27.0,35.8,19.6,8.8,89,54,41,30.26,29.94,10,4,15,0.05
2013-11-13,36.9,28.9,21.9,14.9,10.3,7.5,59,46,37,30.38,30.20,8,2,9,0.00
2013-11-14,51.6,40.3,28.8,22.8,17.1,11.1,49,39,31,30.23,30.09,10,4,13,0.00
2013-11-15,62.1,47.7,36.1,27.0,19.4,11.8,48,33,21,30.26,30.14,12,3,13,0.00
2013-11-16,63.0,46.8,35.2,31.6,23.9,21.0,65,41,26,30.38,30.23,4,1,6,0.00
2013-11-17,51.8,42.0,32.2,44.6,34.5,21.7,97,76,57,30.35,29.94,3,0,4,0.00
2013-11-18,67.8,56.5,44.8,61.3,41.8,26.8,98,62,37,29.91,29.61,13,4,20,0.41
2013-11-19,46.9,39.2,30.4,27.3,17.7,10.6,46,41,37,30.35,29.73,13,5,16,0.00
2013-11-20,41.4,31.3,21.9,15.3,10.0,7.0,56,41,30,30.68,30.32,10,3,10,0.00
2013-11-21,51.3,34.5,19.8,28.4,17.4,8.1,75,51,33,30.68,30.44,8,1,11,0.00
2013-11-22,47.1,44.3,41.5,46.2,40.1,28.0,98,86,58,30.41,29.88,6,1,7,0.08
2013-11-23,47.1,39.3,27.7,46.6,23.4,12.7,98,54,37,30.00,29.85,12,4,17,0.00
2013-11-24,27.3,23.1,19.2,18.1,2.7,-4.0,73,42,29,30.26,29.85,20,6,26,0.00
2013-11-25,34.0,24.7,14.9,11.1,2.0,-4.9,43,37,28,30.41,30.26,10,3,13,0.00
2013-11-26,39.9,34.7,30.9,31.5,17.3,10.4,91,50,40,30.38,30.12,11,2,17,0.13
2013-11-27,61.7,48.0,33.8,61.2,47.0,31.3,98,96,83,30.12,29.29,17,3,22,1.74
2013-11-28,36.0,29.6,22.5,32.0,12.5,5.0,87,49,35,30.50,29.52,24,4,24,0.05
2013-11-29,36.0,26.6,17.8,13.6,7.6,-0.9,59,45,36,30.79,30.47,7,2,9,0.00
2013-11-30,35.6,24.0,11.7,16.2,7.2,-1.3,61,49,40,30.82,30.47,6,1,8,0.00
2013-12-1,35.1,32.5,29.5,34.5,27.7,16.2,98,83,56,30.47,30.09,3,1,5,0.08
2013-12-2,38.8,36.6,35.1,38.3,36.1,34.5,98,98,98,30.09,29.97,4,1,4,0.00
2013-12-3,50.5,38.6,32.2,39.2,32.2,28.8,98,80,47,30.03,29.91,6,2,8,0.00
2013-12-4,46.0,35.0,28.6,30.4,26.1,21.7,91,72,43,30.26,30.00,6,1,7,0.00
2013-12-5,53.1,37.4,28.8,52.5,34.9,24.3,98,91,79,30.26,29.97,5,1,9,0.00
2013-12-6,54.7,47.4,32.9,54.1,43.6,30.4,98,88,55,30.23,29.91,8,2,13,0.17
2013-12-7,40.3,32.7,26.1,33.8,25.6,16.9,98,77,50,30.50,30.14,11,2,11,0.29
2013-12-8,30.7,27.3,21.0,16.9,12.5,9.7,69,54,43,30.65,30.50,5,1,6,0.00
2013-12-9,34.0,30.1,24.8,33.4,27.3,11.8,98,90,52,30.56,29.97,4,1,6,0.04
2013-12-10,34.3,30.7,21.4,32.7,27.3,14.2,98,87,64,30.06,29.85,9,2,9,0.00
2013-12-11,36.3,25.4,20.8,17.2,13.8,10.8,76,62,43,30.26,30.06,13,4,19,0.00
2013-12-12,26.6,19.9,14.2,14.9,4.1,-1.8,75,51,37,30.32,30.12,8,2,14,0.00
2013-12-13,32.2,21.1,13.6,12.2,6.2,0.5,66,52,42,30.44,30.03,14,3,18,0.00
2013-12-14,17.1,12.9,9.3,14.4,1.5,-4.2,89,61,41,30.65,30.20,5,2,7,0.00
2013-12-15,28.8,23.1,17.2,23.2,18.9,13.3,98,84,65,30.20,29.49,10,3,13,0.00
2013-12-16,32.9,22.3,11.3,17.4,7.8,-2.0,78,55,36,30.26,29.79,11,3,15,0.00
2013-12-17,17.1,10.1,-0.4,14.9,-1.6,-13.0,91,59,54,30.32,30.00,6,2,7,0.00
2013-12-18,36.9,24.9,15.3,19.4,15.3,10.6,86,68,43,30.14,29.91,6,2,11,0.00
2013-12-19,45.9,33.6,22.6,23.0,18.6,15.6,77,55,38,30.17,30.03,12,4,17,0.05
2013-12-20,55.8,41.6,31.1,31.8,26.4,21.0,76,56,37,30.17,29.97,9,2,13,0.38
2013-12-21,56.3,47.8,39.6,47.3,38.7,28.0,91,71,53,30.03,29.91,13,3,13,0.00
2013-12-22,59.5,44.1,33.8,59.0,43.2,33.3,98,97,72,30.09,29.85,11,2,15,0.00
2013-12-23,37.9,33.9,32.2,37.4,33.4,31.6,98,98,98,30.14,30.00,4,1,7,0.62
2013-12-24,37.2,31.7,25.0,36.7,19.1,8.8,98,61,41,30.23,30.09,7,2,9,0.04
2013-12-25,24.8,18.7,13.5,9.3,1.0,-2.7,56,45,38,30.59,30.23,9,2,11,0.00
2013-12-26,28.8,22.9,13.8,22.6,13.9,1.0,86,69,56,30.53,30.14,4,1,12,0.00
2013-12-27,36.7,27.7,21.6,20.1,16.3,13.6,83,63,47,30.35,30.26,9,2,11,0.04
2013-12-28,48.6,35.0,26.1,25.7,20.7,16.0,73,57,39,30.26,30.03,13,3,17,0.04
2013-12-29,41.7,35.8,27.9,37.0,28.8,19.9,98,77,54,30.09,29.49,8,2,10,0.91
2013-12-30,40.3,31.7,18.5,36.5,20.6,4.6,98,67,37,30.23,29.58,12,3,15,0.25
2013-12-31,28.0,19.1,11.8,11.1,4.4,-3.1,65,53,40,30.23,30.06,11,2,13,0.00
2014-1-1,30.4,21.2,14.9,9.5,4.0,0.1,57,47,40,30.41,30.23,9,2,12,0.00
2014-1-2,20.3,11.4,0.7,12.9,4.9,-5.6,82,74,56,30.41,29.91,10,4,13,0.00